Regional Weather Roundup
Issued by NWS Newport/Morehead, NC

Current Version | Previous Version | Text Only | Print | Product List | Glossary On
Versions: 1 2 3 4 5 6 7 8 9 10 11 12 13 14 15 16 17 18 19 20 21 22 23 24 25 26 27 28 29 30 31 32 33 34 35 36 37 38 39 40 41 42 43 44 45 46 47 48 49 50
000
ASUS42 KMHX 280812
RWRMHX
WEATHER ROUNDUP FOR EASTERN NORTH CAROLINA
NATIONAL WEATHER SERVICE NEWPORT/MOREHEAD CITY NC
300 AM EST SAT FEB 28 2015

NOTE: "FAIR" INDICATES FEW OR NO CLOUDS BELOW 12,000 FEET
WITH NO SIGNIFICANT WEATHER AND/OR OBSTRUCTIONS TO VISIBILITY

NCZ015>017-031-032-045>047-102-103-280900-
NORTH COAST

CITY           SKY/WX    TMP DP  RH WIND       PRES   REMARKS
EDENTON        CLEAR     27  25  89 N6        30.64S
ELIZABETH CITY CLEAR     30  21  69 N12       30.64R
KITTY HAWK     SUNNY     33  25  75 N10G20    30.60R
MANTEO         CLEAR     32  25  74 N14G25    30.61R

$$

NCZ045>047-081-094-103-104-280900-
CENTRAL COAST

CITY           SKY/WX    TMP DP  RH WIND       PRES   REMARKS
FRISCO         PTCLDY    35  31  85 N10G20    30.57R
SWANQUARTER      N/A    N/A N/A N/A N14       30.53F

$$

NCZ095-097-098-100-101-280900-
SOUTHERN COAST

CITY           SKY/WX    TMP DP  RH WIND       PRES   REMARKS
BEAUFORT       PTCLDY    32  30  92 N12       30.58R
CEDAR ISLAND     N/A     34 N/A N/A N12G24    30.62R
JACKSONVILLE   CLEAR     31  27  85 NE7       30.58R
PINEY ISLAND     N/A    N/A N/A N/A MISG      30.58R
WILMINGTON     PTCLDY    32  28  85 NE8       30.56S


$$

NCZ011>013-027>030-043-044-078>080-089-090>093-098-280900-
COASTAL PLAIN

CITY           SKY/WX    TMP DP  RH WIND       PRES   REMARKS
AHOSKIE        CLEAR     24  20  85 N5        30.66S
CLINTON        CLEAR     32  29  90 NE8       30.59R
ELIZABETHTOWN  CLEAR     32  28  85 CALM      30.57R
GOLDSBORO      CLEAR     29  28  98 NE7       30.58F
GREENVILLE     CLEAR     28  27  93 NE8       30.62S
HAVELOCK       CLEAR     32  28  85 N14       30.59S
KENANSVILLE    CLEAR     30  28  91 NE5       30.59S
KINSTON        PTCLDY    30  27  88 NE12      30.61S
NEW BERN       CLEAR     30  27  88 NE10      30.61R
RICHLANDS      CLEAR     28  25  86 NE8       30.58F
ROCKY MOUNT    CLEAR     28  22  78 NE10      30.63F WCI  19
WASHINGTON     CLEAR     28  25  88 N7        30.63S
WHITEVILLE     PTCLDY    34  29  82 NE8       30.55R

$$

AMZ130-135-150-152-154-156-158-170-250-252-270-ANZ085-086-088-633-658-670-280900-
MARINE OBSERVATIONS

STATION/POSITION TIME  TEMP    WIND        PRES    WAVE   SWELL
                       AIR SEA DIR/SP/G            HT/PER HT/PER
                 (UTC) (F)     (DEG/KT/KT) (MB)    (FT/S) (FT/S)
CHESAPEAKE LIGHT 0700   30      10/ 23/ 25 1037.4
64 E VA BEACH    0750   38 60   10/ 19/ 25 1035.6    7/10   5/10
DUCK             0700   33 35   20/ 20/ 23 1035.5
2 E DUCK         0711      35                N/A     6/11   2/11
10 NE DUCK       0722      36                N/A     6/10   2/11
OREGON INLET     0700   34 38  360/ 17/ 21 1035.5
HATTERAS CG      0712   37 41   10/ 17/ 22 1034.9
CAPE LOOKOUT     0800   35      10/ 13/ 15 1035.0
BEAUFORT LAB     0700   33 40   30/  9/ 14 1033.8
27 SE WRIGHTSVLE NOT AVBL
5 SE WRIGHTSVLE  NOT AVBL
225 S CAPE HAT   0750   66 70   40/ 19/ 23 1027.0   10/ 9   5/11
41 SE CHARLESTON 0750   56 65   40/ 23/ 29 1029.1    6/ 6   3/11

$$


USA.gov is the U.S. government's official web portal to all federal, state and local government web resources and services.